Location: Unspecified
(34.4950°S, 58.5160°W)
Time: 00:19:20
(UTC+00:00)

IRS-1D - Pass Details

Date: 19 April 2026
Orbit: 736 x 810 km, 98.8° (Epoch: 12 May)

Event Time Altitude Azimuth Distance (km) Brightness Sun altitude
Rises 08:07:49 0° 22° (NNE) 3,305 7.0 -28.0°
Reaches altitude 10° 08:10:08 10° 25° (NNE) 2,388 6.2 -27.5°
Maximum altitude 08:15:23 67° 106° (ESE) 885 3.9 -26.4°
Drops below altitude 10° 08:20:43 10° 187° (S) 2,423 6.0 -25.3°
Sets 08:23:05 0° 189° (S) 3,359 6.8 -24.8°
